EN

Hourly Weather Hastings

Today, 27 October, Tuesday

Time Temperature Precipitation Wind Pressure Humidity
00:00 +7°C° 0 mm 5 mps 747 mmHg 90%
01:00 +7°C° 0.1 mm 6 mps 747 mmHg 89%
02:00 +7°C° 0.1 mm 6 mps 747 mmHg 89%
03:00 +5°C° 0.1 mm 6 mps 747 mmHg 89%
04:00 +7°C° 0.1 mm 6 mps 747 mmHg 88%
05:00 +7°C° 0.1 mm 6 mps 747 mmHg 87%
06:00 +7°C° 0 mm 5 mps 747 mmHg 86%
07:00 +8°C° 0.3 mm 7 mps 747 mmHg 87%
08:00 +9°C° 0.3 mm 8 mps 746 mmHg 88%
09:00 +8°C° 0.3 mm 9 mps 746 mmHg 90%
10:00 +9°C° 0.6 mm 10 mps 746 mmHg 90%
11:00 +9°C° 0.6 mm 11 mps 745 mmHg 90%
12:00 +9°C° 0 mm 12 mps 744 mmHg 91%
13:00 +10°C° 0.4 mm 12 mps 744 mmHg 91%
14:00 +12°C° 0.4 mm 12 mps 743 mmHg 91%
15:00 +13°C° 0.4 mm 13 mps 742 mmHg 91%
16:00 +12°C° 0.4 mm 12 mps 742 mmHg 88%
17:00 +11°C° 0.4 mm 11 mps 743 mmHg 85%
18:00 +11°C° 0.4 mm 10 mps 743 mmHg 82%
19:00 +10°C° 0 mm 9 mps 744 mmHg 81%
20:00 +9°C° 0 mm 8 mps 745 mmHg 80%
21:00 +7°C° 0 mm 8 mps 745 mmHg 80%
22:00 +7°C° 0.1 mm 8 mps 746 mmHg 80%
23:00 +8°C° 0.1 mm 7 mps 746 mmHg 80%

Tomorrow, 28 October, Wednesday

Time Temperature Precipitation Wind Pressure Humidity
00:00 +8°C° 0.1 mm 7 mps 747 mmHg 81%
01:00 +8°C° 0.2 mm 7 mps 747 mmHg 80%
02:00 +7°C° 0.2 mm 8 mps 747 mmHg 80%
03:00 +7°C° 0.2 mm 8 mps 747 mmHg 80%
04:00 +7°C° 0.4 mm 9 mps 747 mmHg 80%
05:00 +7°C° 0.4 mm 9 mps 748 mmHg 81%
06:00 +7°C° 0.4 mm 10 mps 748 mmHg 81%
07:00 +8°C° 0.3 mm 10 mps 748 mmHg 79%
08:00 +8°C° 0.3 mm 10 mps 749 mmHg 78%
09:00 +9°C° 0.3 mm 10 mps 749 mmHg 76%
10:00 +9°C° 0.5 mm 10 mps 749 mmHg 75%
11:00 +9°C° 0.5 mm 10 mps 749 mmHg 75%
12:00 +9°C° 0.5 mm 10 mps 749 mmHg 74%
13:00 +9°C° 0.6 mm 11 mps 750 mmHg 77%
14:00 +9°C° 0.6 mm 11 mps 750 mmHg 80%
15:00 +8°C° 0.6 mm 11 mps 750 mmHg 83%
16:00 +8°C° 0.4 mm 11 mps 750 mmHg 82%
17:00 +8°C° 0.4 mm 10 mps 750 mmHg 82%
18:00 +8°C° 0.4 mm 10 mps 750 mmHg 81%
19:00 +7°C° 0.2 mm 10 mps 751 mmHg 81%
20:00 +7°C° 0.2 mm 10 mps 751 mmHg 81%
21:00 +7°C° 0.2 mm 9 mps 752 mmHg 81%
22:00 +7°C° 0.1 mm 10 mps 752 mmHg 80%
23:00 +7°C° 0.1 mm 10 mps 753 mmHg 80%

Day after tomorrow, 29 October, Thursday

Time Temperature Precipitation Wind Pressure Humidity
00:00 +7°C° 0.1 mm 10 mps 753 mmHg 79%
01:00 +7°C° 0.1 mm 9 mps 754 mmHg 80%
02:00 +7°C° 0.1 mm 8 mps 754 mmHg 82%
03:00 +7°C° 0.1 mm 8 mps 755 mmHg 83%
04:00 +8°C° 0 mm 7 mps 755 mmHg 83%
05:00 +8°C° 0 mm 7 mps 756 mmHg 83%
06:00 +8°C° 0 mm 7 mps 756 mmHg 82%
07:00 +9°C° 0 mm 7 mps 757 mmHg 81%
08:00 +10°C° 0 mm 7 mps 757 mmHg 80%
09:00 +11°C° 0 mm 7 mps 758 mmHg 79%
10:00 +11°C° 0.4 mm 8 mps 758 mmHg 83%
11:00 +11°C° 0.4 mm 8 mps 758 mmHg 86%
12:00 +11°C° 0.4 mm 9 mps 757 mmHg 89%
13:00 +12°C° 0.7 mm 10 mps 757 mmHg 88%
14:00 +12°C° 0.7 mm 11 mps 757 mmHg 88%
15:00 +13°C° 0.7 mm 11 mps 757 mmHg 87%
16:00 +13°C° 0.1 mm 11 mps 757 mmHg 87%
17:00 +13°C° 0.1 mm 10 mps 757 mmHg 87%
18:00 +12°C° 0.1 mm 10 mps 757 mmHg 87%
19:00 +12°C° 0 mm 10 mps 758 mmHg 88%
20:00 +12°C° 0 mm 10 mps 758 mmHg 88%
21:00 +12°C° 0 mm 9 mps 758 mmHg 89%
22:00 +12°C° 0.1 mm 10 mps 758 mmHg 88%
23:00 +12°C° 0.1 mm 10 mps 758 mmHg 88%

30 October, Friday

Time Temperature Precipitation Wind Pressure Humidity
00:00 +13°C° 0.1 mm 10 mps 758 mmHg 87%
01:00 +13°C° 0.1 mm 10 mps 758 mmHg 87%
02:00 +13°C° 0.1 mm 10 mps 758 mmHg 88%
03:00 +13°C° 0.1 mm 10 mps 758 mmHg 88%
04:00 +13°C° 0.1 mm 10 mps 758 mmHg 88%
05:00 +13°C° 0.1 mm 10 mps 758 mmHg 88%
06:00 +13°C° 0.1 mm 10 mps 758 mmHg 87%
07:00 +13°C° 0 mm 10 mps 759 mmHg 86%
08:00 +13°C° 0 mm 10 mps 759 mmHg 85%
09:00 +14°C° 0 mm 10 mps 759 mmHg 84%
10:00 +14°C° 0 mm 10 mps 760 mmHg 82%
11:00 +14°C° 0 mm 10 mps 760 mmHg 80%
12:00 +16°C° 0 mm 10 mps 760 mmHg 78%
13:00 +14°C° 0 mm 10 mps 760 mmHg 80%
14:00 +15°C° 0 mm 9 mps 760 mmHg 81%
15:00 +13°C° 0 mm 9 mps 760 mmHg 83%
16:00 +13°C° 0 mm 8 mps 760 mmHg 82%
17:00 +13°C° 0 mm 8 mps 760 mmHg 81%
18:00 +13°C° 0 mm 8 mps 760 mmHg 80%
19:00 +13°C° 0 mm 8 mps 760 mmHg 82%
20:00 +12°C° 0 mm 8 mps 760 mmHg 83%
21:00 +12°C° 0 mm 8 mps 760 mmHg 85%
22:00 +12°C° 0 mm 8 mps 760 mmHg 85%
23:00 +12°C° 0 mm 8 mps 760 mmHg 84%

31 October, Saturday

Time Temperature Precipitation Wind Pressure Humidity
00:00 +12°C° 0 mm 8 mps 759 mmHg 83%
01:00 +12°C° 0 mm 8 mps 759 mmHg 85%
02:00 +12°C° 0 mm 8 mps 759 mmHg 86%
03:00 +12°C° 0 mm 9 mps 759 mmHg 87%
04:00 +12°C° 0 mm 9 mps 758 mmHg 86%
05:00 +12°C° 0 mm 9 mps 758 mmHg 85%
06:00 +12°C° 0 mm 9 mps 758 mmHg 84%
07:00 +13°C° 0 mm 9 mps 758 mmHg 84%
08:00 +13°C° 0 mm 9 mps 757 mmHg 83%
09:00 +15°C° 0 mm 9 mps 757 mmHg 83%
10:00 +14°C° 0 mm 10 mps 757 mmHg 82%
11:00 +14°C° 0 mm 10 mps 757 mmHg 82%
12:00 +14°C° 0 mm 10 mps 757 mmHg 81%
13:00 +14°C° 0.1 mm 10 mps 756 mmHg 82%
14:00 +14°C° 0.1 mm 10 mps 755 mmHg 82%
15:00 +14°C° 0.1 mm 10 mps 755 mmHg 83%
16:00 +14°C° 0.1 mm 10 mps 755 mmHg 84%
17:00 +14°C° 0.1 mm 11 mps 754 mmHg 84%
18:00 +16°C° 0.1 mm 11 mps 754 mmHg 85%
19:00 +14°C° 0.2 mm 12 mps 754 mmHg 86%
20:00 +14°C° 0.2 mm 12 mps 753 mmHg 87%
21:00 +14°C° 0.2 mm 13 mps 753 mmHg 88%
22:00 +14°C° 0.1 mm 13 mps 753 mmHg 88%
23:00 +14°C° 0.1 mm 13 mps 753 mmHg 88%

1 November, Sunday

Time Temperature Precipitation Wind Pressure Humidity
00:00 +15°C° 0.1 mm 13 mps 753 mmHg 89%
01:00 +14°C° 0.7 mm 13 mps 752 mmHg 90%
02:00 +14°C° 0.7 mm 13 mps 751 mmHg 92%
03:00 +14°C° 0.7 mm 14 mps 751 mmHg 93%
04:00 +15°C° 1.1 mm 14 mps 751 mmHg 92%
05:00 +15°C° 1.1 mm 14 mps 750 mmHg 92%
06:00 +15°C° 1.1 mm 15 mps 750 mmHg 91%
07:00 +15°C° 0.6 mm 15 mps 750 mmHg 91%
08:00 +15°C° 0.6 mm 15 mps 750 mmHg 91%
09:00 +15°C° 0.6 mm 16 mps 750 mmHg 91%
10:00 +15°C° 0.1 mm 15 mps 750 mmHg 90%
11:00 +15°C° 0.1 mm 15 mps 750 mmHg 90%
12:00 +17°C° 0.1 mm 14 mps 751 mmHg 90%
13:00 +15°C° 0.3 mm 14 mps 751 mmHg 91%
14:00 +15°C° 0.3 mm 14 mps 751 mmHg 92%
15:00 +15°C° 0.3 mm 14 mps 751 mmHg 93%
16:00 +15°C° 0.3 mm 13 mps 751 mmHg 92%
17:00 +17°C° 0.3 mm 13 mps 751 mmHg 91%
18:00 +17°C° 0.3 mm 13 mps 751 mmHg 90%
19:00 +17°C° 0 mm 13 mps 751 mmHg 89%
20:00 +17°C° 0 mm 13 mps 751 mmHg 88%
21:00 +17°C° 0 mm 13 mps 751 mmHg 87%
22:00 +17°C° 0.1 mm 13 mps 751 mmHg 87%
23:00 +17°C° 0.1 mm 13 mps 751 mmHg 87%
Show more